Time,TemperatureF,DewpointF,PressureIn,WindDirection,WindDirectionDegrees,WindSpeedMPH,WindSpeedGustMPH,Humidity,HourlyPrecipIn,Conditions,Clouds,dailyrainin,SolarRadiationWatts/m^2,SoftwareType,DateUTC
2013-06-14 00:02:00,62.0,44.0,28.84,SSE,154,0.0,0.0,52,0.00,,,0.00,0.000000,,2013-06-14 07:02:00,
2013-06-14 00:12:00,62.0,44.0,28.84,SSE,154,0.0,0.0,52,0.00,,,0.00,0.000000,,2013-06-14 07:12:00,
2013-06-14 00:22:00,61.0,44.0,28.84,SSE,154,0.0,0.0,53,0.00,,,0.00,0.000000,,2013-06-14 07:22:00,
2013-06-14 00:33:00,61.0,44.0,28.84,SSE,154,0.0,0.0,53,0.00,,,0.00,0.000000,,2013-06-14 07:33:00,
2013-06-14 00:43:00,61.0,44.0,28.84,SSE,154,0.0,0.0,54,0.00,,,0.00,0.000000,,2013-06-14 07:43:00,
2013-06-14 00:53:00,60.0,43.0,28.83,SSE,156,0.0,2.0,54,0.00,,,0.00,0.000000,,2013-06-14 07:53:00,
2013-06-14 01:01:00,60.0,43.0,28.83,SSE,156,0.0,2.0,54,0.00,,,0.00,0.000000,,2013-06-14 08:01:00,
2013-06-14 01:11:00,59.0,43.0,28.83,SSE,156,0.0,0.0,56,0.00,,,0.00,0.000000,,2013-06-14 08:11:00,
2013-06-14 01:22:00,58.0,43.0,28.83,SSE,156,0.0,0.0,57,0.00,,,0.00,0.000000,,2013-06-14 08:22:00,
2013-06-14 01:33:00,58.0,44.0,28.82,SSE,156,0.0,1.0,59,0.00,,,0.00,0.000000,,2013-06-14 08:33:00,
2013-06-14 01:43:00,58.0,44.0,28.82,SSE,156,0.0,1.0,59,0.00,,,0.00,0.000000,,2013-06-14 08:43:00,
2013-06-14 01:53:00,57.0,43.0,28.82,ENE,76,0.0,2.0,60,0.00,,,0.00,0.000000,,2013-06-14 08:53:00,
2013-06-14 02:01:00,57.0,43.0,28.82,South,175,0.0,4.0,60,0.00,,,0.00,0.000000,,2013-06-14 09:01:00,
2013-06-14 02:11:00,57.0,43.0,28.82,South,175,0.0,4.0,60,0.00,,,0.00,0.000000,,2013-06-14 09:11:00,
2013-06-14 02:22:00,59.0,42.0,28.81,North,355,1.0,4.0,53,0.00,,,0.00,0.000000,,2013-06-14 09:22:00,
2013-06-14 02:33:00,59.0,42.0,28.81,North,355,1.0,4.0,53,0.00,,,0.00,0.000000,,2013-06-14 09:33:00,
2013-06-14 02:43:00,63.0,39.0,28.80,NNW,331,0.0,6.0,41,0.00,,,0.00,0.000000,,2013-06-14 09:43:00,
2013-06-14 02:53:00,65.0,39.0,28.80,NNW,331,2.0,7.0,38,0.00,,,0.00,0.000000,,2013-06-14 09:53:00,
2013-06-14 03:33:00,67.0,38.0,28.79,SSW,210,0.0,8.0,35,0.00,,,0.00,0.000000,,2013-06-14 10:33:00,
2013-06-14 03:52:00,67.0,38.0,28.79,SSE,153,2.0,7.0,34,0.00,,,0.00,0.000000,,2013-06-14 10:52:00,
2013-06-14 04:22:00,67.0,36.0,28.79,NNW,343,2.0,12.0,32,0.00,,,0.00,0.000000,,2013-06-14 11:22:00,
2013-06-14 05:01:00,66.0,34.0,28.78,NNE,12,3.0,7.0,31,0.00,,,0.00,0.000000,,2013-06-14 12:01:00,
2013-06-14 05:11:00,66.0,34.0,28.78,NNE,12,3.0,7.0,31,0.00,,,0.00,0.000000,,2013-06-14 12:11:00,
2013-06-14 05:22:00,66.0,34.0,28.79,North,11,1.0,5.0,31,0.00,,,0.00,0.000000,,2013-06-14 12:22:00,
2013-06-14 05:32:00,66.0,34.0,28.79,North,11,1.0,5.0,31,0.00,,,0.00,0.000000,,2013-06-14 12:32:00,
2013-06-14 05:43:00,66.0,35.0,28.79,North,355,2.0,6.0,32,0.00,,,0.00,0.000000,,2013-06-14 12:43:00,
2013-06-14 05:52:00,66.0,35.0,28.79,NW,324,1.0,7.0,32,0.00,,,0.00,0.000000,,2013-06-14 12:52:00,
2013-06-14 06:01:00,66.0,35.0,28.79,NW,324,1.0,7.0,32,0.00,,,0.00,0.000000,,2013-06-14 13:01:00,
2013-06-14 06:11:00,65.0,34.0,28.79,ENE,67,1.0,5.0,31,0.00,,,0.00,0.000000,,2013-06-14 13:11:00,
2013-06-14 06:22:00,65.0,34.0,28.79,NNE,20,1.0,5.0,31,0.00,,,0.00,11.000000,,2013-06-14 13:22:00,
2013-06-14 06:33:00,65.0,34.0,28.79,NNE,20,1.0,5.0,31,0.00,,,0.00,11.000000,,2013-06-14 13:33:00,
2013-06-14 06:43:00,65.0,34.0,28.79,West,275,0.0,3.0,32,0.00,,,0.00,25.000000,,2013-06-14 13:43:00,
2013-06-14 06:53:00,64.0,37.0,28.79,WNW,299,0.0,4.0,37,0.00,,,0.00,46.000000,,2013-06-14 13:53:00,
2013-06-14 07:02:00,63.0,39.0,28.78,WNW,300,0.0,2.0,41,0.00,,,0.00,72.000000,,2013-06-14 14:02:00,
2013-06-14 07:11:00,63.0,39.0,28.78,WNW,300,0.0,2.0,41,0.00,,,0.00,72.000000,,2013-06-14 14:11:00,
2013-06-14 07:22:00,63.0,40.0,28.78,WNW,300,0.0,0.0,43,0.00,,,0.00,83.000000,,2013-06-14 14:22:00,
2013-06-14 07:33:00,63.0,40.0,28.78,WNW,300,0.0,0.0,43,0.00,,,0.00,83.000000,,2013-06-14 14:33:00,
2013-06-14 07:43:00,63.0,41.0,28.78,WNW,300,0.0,0.0,45,0.00,,,0.00,91.000000,,2013-06-14 14:43:00,
2013-06-14 07:52:00,63.0,40.0,28.78,NW,315,0.0,2.0,43,0.00,,,0.00,139.000000,,2013-06-14 14:52:00,
2013-06-14 08:01:00,63.0,40.0,28.78,NW,315,0.0,2.0,43,0.00,,,0.00,139.000000,,2013-06-14 15:01:00,
2013-06-14 08:11:00,64.0,42.0,28.77,NW,310,0.0,1.0,44,0.00,,,0.00,218.000000,,2013-06-14 15:11:00,
2013-06-14 08:22:00,65.0,43.0,28.77,NW,310,0.0,1.0,45,0.00,,,0.00,185.000000,,2013-06-14 15:22:00,
2013-06-14 08:33:00,66.0,42.0,28.77,SE,140,0.0,3.0,42,0.00,,,0.00,360.000000,,2013-06-14 15:33:00,
2013-06-14 08:43:00,66.0,42.0,28.77,SE,140,0.0,3.0,42,0.00,,,0.00,360.000000,,2013-06-14 15:43:00,
2013-06-14 08:53:00,69.0,42.0,28.77,North,360,0.0,2.0,37,0.00,,,0.00,411.000000,,2013-06-14 15:53:00,
2013-06-14 09:01:00,69.0,42.0,28.77,North,360,0.0,2.0,37,0.00,,,0.00,411.000000,,2013-06-14 16:01:00,
2013-06-14 09:11:00,71.0,40.0,28.77,South,173,0.0,1.0,33,0.00,,,0.00,408.000000,,2013-06-14 16:11:00,
2013-06-14 09:22:00,73.0,41.0,28.77,NW,317,0.0,3.0,31,0.00,,,0.00,534.000000,,2013-06-14 16:22:00,
2013-06-14 09:32:00,76.0,41.0,28.77,NW,310,0.0,4.0,28,0.00,,,0.00,526.000000,,2013-06-14 16:32:00,
2013-06-14 09:43:00,76.0,41.0,28.77,NW,310,0.0,4.0,28,0.00,,,0.00,526.000000,,2013-06-14 16:43:00,
2013-06-14 09:53:00,77.0,39.0,28.76,WNW,290,0.0,2.0,26,0.00,,,0.00,621.000000,,2013-06-14 16:53:00,
2013-06-14 10:02:00,77.0,39.0,28.76,WNW,290,0.0,2.0,26,0.00,,,0.00,621.000000,,2013-06-14 17:02:00,
2013-06-14 10:11:00,78.0,38.0,28.76,West,260,1.0,3.0,24,0.00,,,0.00,577.000000,,2013-06-14 17:11:00,
2013-06-14 10:22:00,79.0,39.0,28.75,SW,234,0.0,3.0,24,0.00,,,0.00,679.000000,,2013-06-14 17:22:00,
2013-06-14 10:34:00,81.0,36.0,28.75,NW,304,1.0,4.0,20,0.00,,,0.00,726.000000,,2013-06-14 17:34:00,
2013-06-14 10:43:00,81.0,36.0,28.75,NW,304,1.0,4.0,20,0.00,,,0.00,726.000000,,2013-06-14 17:43:00,
2013-06-14 10:53:00,82.0,34.0,28.74,NW,319,1.0,8.0,18,0.00,,,0.00,752.000000,,2013-06-14 17:53:00,
2013-06-14 11:02:00,82.0,34.0,28.74,NW,319,1.0,8.0,18,0.00,,,0.00,752.000000,,2013-06-14 18:02:00,
2013-06-14 11:21:00,85.0,27.0,28.74,ENE,65,2.0,7.0,12,0.00,,,0.00,833.000000,,2013-06-14 18:21:00,
2013-06-14 11:32:00,84.0,26.0,28.74,South,183,0.0,7.0,12,0.00,,,0.00,863.000000,,2013-06-14 18:32:00,
2013-06-14 11:42:00,84.0,26.0,28.74,South,183,0.0,7.0,12,0.00,,,0.00,863.000000,,2013-06-14 18:42:00,
2013-06-14 11:52:00,87.0,28.0,28.74,NE,50,1.0,5.0,12,0.00,,,0.00,891.000000,,2013-06-14 18:52:00,
2013-06-14 12:01:00,87.0,28.0,28.74,NE,50,1.0,5.0,12,0.00,,,0.00,891.000000,,2013-06-14 19:01:00,
2013-06-14 12:11:00,86.0,27.0,28.73,East,94,0.0,6.0,12,0.00,,,0.00,911.000000,,2013-06-14 19:11:00,
2013-06-14 12:21:00,87.0,30.0,28.73,West,266,1.0,8.0,13,0.00,,,0.00,928.000000,,2013-06-14 19:21:00,
2013-06-14 12:32:00,87.0,30.0,28.73,West,266,1.0,8.0,13,0.00,,,0.00,928.000000,,2013-06-14 19:32:00,
2013-06-14 12:43:00,88.0,25.0,28.73,NNE,19,1.0,5.0,10,0.00,,,0.00,953.000000,,2013-06-14 19:43:00,
2013-06-14 12:53:00,89.0,23.0,28.73,ENE,58,1.0,5.0,9,0.00,,,0.00,967.000000,,2013-06-14 19:53:00,
2013-06-14 13:01:00,89.0,23.0,28.73,ENE,58,1.0,5.0,9,0.00,,,0.00,967.000000,,2013-06-14 20:01:00,
2013-06-14 13:11:00,89.0,25.0,28.72,NW,309,1.0,4.0,10,0.00,,,0.00,977.000000,,2013-06-14 20:11:00,
2013-06-14 13:22:00,90.0,28.0,28.71,North,355,2.0,5.0,11,0.00,,,0.00,984.000000,,2013-06-14 20:22:00,
2013-06-14 13:33:00,89.0,28.0,28.71,NE,37,1.0,4.0,11,0.00,,,0.00,986.000000,,2013-06-14 20:33:00,
2013-06-14 13:43:00,89.0,28.0,28.71,NE,37,1.0,4.0,11,0.00,,,0.00,986.000000,,2013-06-14 20:43:00,
2013-06-14 13:53:00,89.0,25.0,28.71,SW,229,0.0,3.0,10,0.00,,,0.00,984.000000,,2013-06-14 20:53:00,
2013-06-14 14:01:00,91.0,29.0,28.70,NNE,28,0.0,2.0,11,0.00,,,0.00,984.000000,,2013-06-14 21:01:00,
2013-06-14 14:11:00,91.0,29.0,28.70,NNE,28,0.0,2.0,11,0.00,,,0.00,984.000000,,2013-06-14 21:11:00,
2013-06-14 14:22:00,93.0,26.0,28.70,WNW,301,0.0,2.0,9,0.00,,,0.00,976.000000,,2013-06-14 21:22:00,
2013-06-14 14:33:00,93.0,26.0,28.70,WNW,301,0.0,2.0,9,0.00,,,0.00,976.000000,,2013-06-14 21:33:00,
2013-06-14 14:42:00,92.0,30.0,28.69,SW,220,1.0,3.0,11,0.00,,,0.00,963.000000,,2013-06-14 21:42:00,
2013-06-14 14:52:00,90.0,26.0,28.69,SSW,205,1.0,4.0,10,0.00,,,0.00,949.000000,,2013-06-14 21:52:00,
2013-06-14 15:01:00,91.0,29.0,28.68,SSW,211,1.0,4.0,11,0.00,,,0.00,930.000000,,2013-06-14 22:01:00,
2013-06-14 15:11:00,91.0,29.0,28.68,SSW,211,1.0,4.0,11,0.00,,,0.00,930.000000,,2013-06-14 22:11:00,
2013-06-14 15:22:00,91.0,29.0,28.68,NNW,333,0.0,4.0,11,0.00,,,0.00,909.000000,,2013-06-14 22:22:00,
2013-06-14 15:33:00,91.0,27.0,28.67,SSW,208,1.0,6.0,10,0.00,,,0.00,884.000000,,2013-06-14 22:33:00,
2013-06-14 15:43:00,91.0,27.0,28.67,SSW,208,1.0,6.0,10,0.00,,,0.00,884.000000,,2013-06-14 22:43:00,
2013-06-14 15:53:00,92.0,28.0,28.67,ENE,65,0.0,2.0,10,0.00,,,0.00,854.000000,,2013-06-14 22:53:00,
2013-06-14 16:01:00,93.0,26.0,28.66,SW,214,1.0,3.0,9,0.00,,,0.00,830.000000,,2013-06-14 23:01:00,
2013-06-14 16:11:00,93.0,26.0,28.66,SW,214,1.0,3.0,9,0.00,,,0.00,830.000000,,2013-06-14 23:11:00,
2013-06-14 16:22:00,92.0,25.0,28.66,South,180,1.0,3.0,9,0.00,,,0.00,795.000000,,2013-06-14 23:22:00,
2013-06-14 16:32:00,92.0,25.0,28.66,South,180,1.0,3.0,9,0.00,,,0.00,795.000000,,2013-06-14 23:32:00,
2013-06-14 16:43:00,92.0,25.0,28.65,SW,228,1.0,4.0,9,0.00,,,0.00,759.000000,,2013-06-14 23:43:00,
2013-06-14 16:52:00,91.0,29.0,28.65,SW,235,0.0,4.0,11,0.00,,,0.00,719.000000,,2013-06-14 23:52:00,
2013-06-14 17:01:00,91.0,29.0,28.65,SW,235,0.0,4.0,11,0.00,,,0.00,719.000000,,2013-06-15 00:01:00,
2013-06-14 17:11:00,92.0,25.0,28.64,SSW,206,0.0,3.0,9,0.00,,,0.00,677.000000,,2013-06-15 00:11:00,
2013-06-14 17:22:00,92.0,30.0,28.64,South,190,0.0,4.0,11,0.00,,,0.00,573.000000,,2013-06-15 00:22:00,
2013-06-14 18:22:00,85.0,42.0,28.63,SW,220,3.0,5.0,22,0.00,,,0.00,40.000000,,2013-06-15 01:22:00,
2013-06-14 18:54:00,84.0,42.0,28.62,SE,129,2.0,5.0,23,0.00,,,0.00,63.000000,,2013-06-15 01:54:00,
2013-06-14 19:02:00,83.0,41.0,28.63,SSW,199,1.0,4.0,23,0.00,,,0.00,37.000000,,2013-06-15 02:02:00,
2013-06-14 19:11:00,82.0,42.0,28.64,South,182,1.0,4.0,24,0.00,,,0.00,160.000000,,2013-06-15 02:11:00,
2013-06-14 19:33:00,82.0,42.0,28.64,South,182,1.0,4.0,24,0.00,,,0.00,160.000000,,2013-06-15 02:33:00,
2013-06-14 19:42:00,81.0,40.0,28.64,South,187,0.0,3.0,23,0.00,,,0.00,33.000000,,2013-06-15 02:42:00,
2013-06-14 19:53:00,81.0,40.0,28.64,South,187,0.0,3.0,23,0.00,,,0.00,33.000000,,2013-06-15 02:53:00,
2013-06-14 20:01:00,80.0,40.0,28.64,SW,221,0.0,3.0,24,0.00,,,0.00,19.000000,,2013-06-15 03:01:00,
2013-06-14 20:11:00,80.0,40.0,28.64,SW,221,0.0,3.0,24,0.00,,,0.00,19.000000,,2013-06-15 03:11:00,
2013-06-14 20:23:00,79.0,39.0,28.64,SW,221,0.0,1.0,24,0.00,,,0.00,16.000000,,2013-06-15 03:23:00,
2013-06-14 20:32:00,79.0,39.0,28.64,SW,221,0.0,1.0,24,0.00,,,0.00,16.000000,,2013-06-15 03:32:00,
2013-06-14 20:43:00,78.0,40.0,28.64,SW,221,0.0,0.0,26,0.00,,,0.00,9.000000,,2013-06-15 03:43:00,
2013-06-14 20:52:00,78.0,40.0,28.64,SW,221,0.0,0.0,26,0.00,,,0.00,9.000000,,2013-06-15 03:52:00,
2013-06-14 21:01:00,75.0,38.0,28.64,SW,221,0.0,0.0,26,0.00,,,0.00,0.000000,,2013-06-15 04:01:00,
2013-06-14 21:11:00,75.0,38.0,28.64,SW,221,0.0,0.0,26,0.00,,,0.00,0.000000,,2013-06-15 04:11:00,
2013-06-14 21:22:00,74.0,38.0,28.64,SW,220,0.0,2.0,27,0.00,,,0.00,0.000000,,2013-06-15 04:22:00,
2013-06-14 21:33:00,73.0,37.0,28.65,SW,221,0.0,1.0,27,0.00,,,0.00,0.000000,,2013-06-15 04:33:00,
2013-06-14 21:43:00,73.0,37.0,28.65,SW,221,0.0,1.0,27,0.00,,,0.00,0.000000,,2013-06-15 04:43:00,
2013-06-14 21:54:00,73.0,37.0,28.65,SW,221,0.0,1.0,27,0.00,,,0.00,0.000000,,2013-06-15 04:54:00,
2013-06-14 22:02:00,71.0,37.0,28.65,SW,221,0.0,0.0,29,0.00,,,0.00,0.000000,,2013-06-15 05:02:00,
2013-06-14 22:12:00,70.0,37.0,28.65,SW,221,0.0,0.0,30,0.00,,,0.00,0.000000,,2013-06-15 05:12:00,
2013-06-14 22:22:00,69.0,38.0,28.65,SW,221,0.0,0.0,32,0.00,,,0.00,0.000000,,2013-06-15 05:22:00,
2013-06-14 22:34:00,69.0,38.0,28.65,SW,221,0.0,0.0,32,0.00,,,0.00,0.000000,,2013-06-15 05:34:00,
2013-06-14 22:42:00,68.0,37.0,28.66,SW,221,0.0,0.0,32,0.00,,,0.00,0.000000,,2013-06-15 05:42:00,
2013-06-14 22:52:00,67.0,39.0,28.66,SW,221,0.0,0.0,36,0.00,,,0.00,0.000000,,2013-06-15 05:52:00,
2013-06-14 23:01:00,65.0,37.0,28.66,SW,221,0.0,0.0,36,0.00,,,0.00,0.000000,,2013-06-15 06:01:00,
2013-06-14 23:11:00,65.0,37.0,28.66,SW,221,0.0,0.0,36,0.00,,,0.00,0.000000,,2013-06-15 06:11:00,
2013-06-14 23:24:00,65.0,39.0,28.66,SW,221,0.0,0.0,38,0.00,,,0.00,0.000000,,2013-06-15 06:24:00,
2013-06-14 23:33:00,64.0,39.0,28.66,SW,221,0.0,0.0,39,0.00,,,0.00,0.000000,,2013-06-15 06:33:00,
2013-06-14 23:43:00,64.0,39.0,28.66,SW,221,0.0,0.0,39,0.00,,,0.00,0.000000,,2013-06-15 06:43:00,
2013-06-14 23:53:00,63.0,39.0,28.66,SW,221,0.0,0.0,41,0.00,,,0.00,0.000000,,2013-06-15 06:53:00,